User: anonymous   Login
Location: Rehoboth Beach
(38.7438°N, 75.1341°W)
Time: 21:40:55
(UTC-04:00)
Language:

Cosmos 1452 Rocket - Orbit

View from above orbital plane
View from above orbital plane
View from above satellite
View from above satellite

Ground track
Ground track

The orbit data is extracted from the following two-line orbital elements,

1 13992U 83031B   16126.28308880  .00000071  00000-0  33519-4 0  9995
2 13992  74.0551  35.2462 0004261 126.5960  16.9834 14.36030469730256
Epoch (UTC): 05 May 2016 06:47:38
Eccentricity: 0.0004261
inclination: 74.0551°
perigee height: 768 km
apogee height: 774 km
right ascension of ascending node: 35.2462°
argument of perigee: 126.5960°
revolutions per day: 14.36030469
mean anomaly at epoch: 16.9834°
orbit number at epoch: 73025

The dashed part of the orbit path shows where the satellite is in the earth's shadow,  

DLR